Showing default

AGILA, 62456

Orbit data source: Space-Track

AGILA, 62456 is a UK payload satellite in HEO that was launched on Sun, 29 Dec 2024 UTC via an FALCON 9 launch vehicle from the Air Force Eastern Test Range (AFETR). Payload-class satellites include a variety of spacecraft equipped with specific instruments for various scientific and technological missions. These include communications satellites like Starlink; space stations such as the ISS; scientific satellites like the Hubble; Earth observation satellites from companies like Planet Labs, Umbra, and HawkEye 360; GPS; miniature CubeSats for education and research; and military/defense satellites.

Not visible in the next 10 days
Identifier
62456, 2024-252C
Orbit
HEO
Last TLE update
21 hours ago
Origin
Manufacturer
Astranis
Mission
Operational Commercial Communications
Bus & Motor
MICROGEO, EP
Mass
400 kg wet, 400 kg dry
Launch date (UTC)
2024-12-29 (4 months ago)
Launch vehicle
FALCON 9
Launch site
Air Force Eastern Test Range (AFETR)
Object type
Payload
Rocket body
Debris
Shape & HBR
Box + 22 Pan, 10 m
Radar Cross Section
41.175 m²

Expand to show TLE details & history

TLE from 21 hours ago
0 AGILA
1 62456U 24252C   25128.72777778 -.00000240  00000-0  00000+0 0  9994
2 62456   1.0751 318.3616 3880853  48.5297 350.4065  0.78173075  1234
Epoch: 2025-05-08T17:28Z
Definitive object data (Epoch: 2025-05-08T17:28:00Z)
Latitude
0.47677°
Longitude
-145.81473°
Altitude
24,811.141 km
Speed
4.19 km/s
True Right ascension
22h 51m 55s
True Declination
0° 28' 34"
Sunlit
Object was in daylight at TLE epoch
Visualization TLE readout
Latitude
-1.06047°
Longitude
85.82058°
Altitude
58,153.842 km
Speed
2.085 km/s
Apparent Right ascension
14h 04m 27s
Apparent Declination
-4° 28' 18"
Sunlit
Object is in daylight
Visualization observer readout
Local Sidereal Time
22:30:33
Azimuth
291.829° WNW
Elevation
-30.338°
Doppler factor
1
Orbital elements
Apogee altitude
62,718.459 km
Perigee altitude
24,081.967 km
Semi-major axis
49,778.35 km
Eccentricity
0.3880853
Inclination
1.0751°
RAAN
318.3616°
Arg. of periapsis
48.5297°
True anomaly
336.74847°
Mean anomaly
350.4065°
Eccentric anomaly
344.44295°
Mean motion
0.19543 °/min
BSTAR
Unknown
Orbital period
1842.13 mins
Loading maneuver chart data...
Loading SW <> Apogee altitude chart data...
Loading historical data...
Loading historical data...
Loading historical data...
Loading historical data...
Loading historical data...
Loading historical data...
Loading historical data...
Other satellites on launch #252 in the year 2024 (2024-12-29 UTC)

AGILA Visibility forecast

Observer location: undefined°, undefined°

AGILA is not visible in the next 10 days
Span
Click to sort rows by Start time (UTC) header in descending order
Start Az.
Max El. time (UTC)
Max El. Az.
Max El.
End time (UTC)
End Az.
|